{"data":{"norad_id":53700,"intl_designator":"2022-107A","name":"STARLINK-4725","alt_names":[],"object_type":"PAYLOAD","status":"ACTIVE","operator":null,"country":"US","launch_date":"2022-09-05","launch_site_code":"AFETR","launch_vehicle":null,"mission":null,"orbit_class":"UNKNOWN","rcs_meters":null,"size_class":null,"mass_kg":null,"dimensions":null,"purposes":["comms"],"wikipedia_slug":null,"has_3d_model":false,"image_url":null,"decayed_at":null,"tle_current":{"epoch":"2026-05-24T18:19:09.552000Z","epoch_age_seconds":99022,"freshness":"FRESH","line1":"1 53700U 22107A   26144.76330500 -.00000230  00000+0  36351-5 0  9996","line2":"2 53700  53.2155 262.2393 0001165  87.3956 272.7169 15.08835496206344","mean_motion":15.08835496,"eccentricity":0.0001165,"inclination_deg":53.2155,"raan_deg":262.2393,"arg_perigee_deg":87.3956,"mean_anomaly_deg":272.7169,"bstar":3.6351e-6,"rev_number":20634,"period_min":95.437839566839,"perigee_km":538.95122125533,"apogee_km":540.56309059366,"semimajor_km":6917.8941559245,"source":"CELESTRAK","updated_at":"2026-05-25T13:38:17.531472Z"}}}